[[{"header":{"parameterUnit":"m.s-1","parameterCategory":1,"la1":30.2991,"la2":30.254,"lo1":-89.0895,"lo2":-89.0444,"dy":0.0017,"dx":0.0017,"nx":28,"ny":28,"refTime":"2025-02-09T09:00:00:Z","depth":0,"parameterNumber":2,"parameterNumberName":"U-component_of_WINDS"},"data":[0,0,0,0,0,0,0,0,0,0,0,0,0,0,0,0,0,0,0,0,0,0,0,0,0,0,0,0,0,0,0,0,0,0,0,0,0,0,0,0,0,0,0,0,0,0,0,0,0,0,0,0,0,0,0,0,0,0,-2.0104,-2.0104,0,-2.01,-2.01,-2.01,-2.0027,-2.0025,-2.0023,-2.0022,-2.0018,-2.002,-2.0021,0,0,0,0,0,0,0,0,0,0,0,0,0,-2.0051,-2.0052,-2.0104,-2.0104,-2.0104,-2.01,-2.01,-2.01,-2.0027,-2.0025,-2.0023,-2.0021,-2.0017,-2.0019,-2.0021,0,0,0,0,0,0,0,0,0,0,0,0,0,-2.0063,-2.0052,-2.0104,-2.0067,-2.0064,-2.01,-2.01,-2.01,-2.0028,-2.0025,-2.0022,-2.002,-2.0017,-2.0019,-2.0022,-2.0093,0,0,-2.0029,-2.003,0,0,0,0,0,0,0,0,-2.0062,-2.0065,-2.0073,-2.007,-2.0066,-2.0061,-2.008,-2.0098,-2.0029,-2.0042,-2.0021,-2.0018,-2.0035,-2.0036,-2.0041,-2.0093,-2.0093,-2.0029,-2.0031,-2.0032,-2.0033,0,0,0,0,0,0,0,-2.0062,-2.0065,-2.0103,-2.0073,-2.0069,-2.0052,-2.005,-2.0083,-2.0054,-2.004,-2.0035,-2.0035,-2.0032,-2.0039,-2.004,-2.0093,-2.0029,-2.0032,-2.0033,-2.0034,-2.0204,-2.0207,0,0,0,0,0,0,-2.0066,-2.0065,-2.0103,-2.0102,-2.0057,-2.0055,-2.0053,-2.0066,-2.0053,-2.0049,-2.0038,-2.0032,-2.0036,-2.0037,-2.004,-2.0123,-2.0032,-2.0034,-2.0036,-2.0201,-2.0205,-2.0208,0,0,0,0,0,0,-2.0065,-2.007,-2.0103,-2.0082,-2.0085,-2.0059,-2.0073,-2.0067,-2.0073,-2.0052,-2.0046,-2.005,-2.0034,-2.0036,-2.0081,-2.0122,-2.0035,-2.0038,-2.0198,-2.0202,-2.0206,-2.029,0,0,0,0,0,0,-2.0064,-2.007,-2.0096,-2.0083,-2.0086,-2.0143,-2.0076,-2.0069,-2.0078,-2.007,-2.0061,-2.0057,-2.0032,-2.0077,-2.0083,-2.0124,-2.004,-2.0194,-2.02,-2.0205,-2.0284,-2.0297,-2.0309,0,0,0,0,0,-2.0062,-2.012,-2.0098,-2.0103,-2.0119,-2.0146,-2.0148,-2.0117,-2.0081,-2.0108,-2.0094,-2.0057,-2.0117,-2.0082,-2.0088,-2.013,-2.0191,-2.0198,-2.0205,-2.0278,-2.0294,-2.0308,0,0,0,0,0,0,-2.0138,-2.0117,-2.0093,-2.0148,-2.015,-2.0134,-2.0166,-2.0136,-2.0147,-2.0139,-2.0102,-2.01,-2.0151,-2.0145,-2.0107,-2.02,-2.0147,-2.0156,-2.0201,-2.0217,-2.0229,-2.0229,-2.0042,0,0,0,0,0,-2.0162,-2.0185,-2.0166,-2.0216,-2.0218,-2.0193,-2.0203,-2.018,-2.018,-2.018,-2.0169,-2.017,-2.0189,-2.0203,-2.0219,-2.0283,-2.028,-2.0315,-2.0327,-2.0338,-2.0345,-2.0379,-2.0395,-2.0231,-2.023,-2.023,0,0,-2.021,-2.0201,-2.0218,-2.0232,-2.023,-2.0256,-2.0193,-2.0223,-2.0242,-2.0184,-2.0225,-2.0218,-2.0217,-2.0272,-2.0295,-2.0268,-2.039,-2.0346,-2.0355,-2.0357,-2.0388,-2.0404,-2.0418,-2.0235,-2.0234,-2.0234,0,0,-2.0311,-2.0307,-2.0349,-2.0349,-2.0347,-2.0329,-2.034,-2.0329,-2.0322,-2.0362,-2.032,-2.0343,-2.0376,-2.0377,-2.0383,-2.0486,-2.0453,-2.0493,-2.0558,-2.0592,-2.0605,-2.0616,-2.0654,-2.0667,-2.0501,-2.0501,-2.0501,0,-2.0371,-2.0408,-2.0374,-2.0407,-2.0415,-2.0364,-2.0407,-2.0409,-2.0413,-2.0419,-2.0389,-2.0431,-2.0427,-2.0482,-2.0507,-2.0513,-2.0524,-2.0493,-2.0605,-2.0616,-2.0627,-2.0662,-2.0676,-2.0506,-2.0505,-2.0505,-2.0504,0,-2.0482,-2.0508,-2.0543,-2.0548,-2.0559,-2.0597,-2.0571,-2.0586,-2.0563,-2.0549,-2.0592,-2.0585,-2.06,-2.0611,-2.0588,-2.0663,-2.0647,-2.0612,-2.0559,-2.0648,-2.068,-2.0693,-2.0513,-2.0511,-2.0509,-2.0508,0,0,-2.063,-2.0617,-2.0631,-2.0633,-2.0628,-2.0648,-2.0684,-2.0698,-2.0713,-2.0718,-2.0747,-2.0778,-2.0746,-2.0752,-2.0729,-2.0759,-2.0842,-2.072,-2.072,-2.0743,-2.0926,-2.0952,-2.0968,-2.082,-2.0823,-2.0825,-2.0926,0,-2.0728,-2.0788,-2.076,-2.0824,-2.0848,-2.0802,-2.0833,-2.0834,-2.0823,-2.0842,-2.0829,-2.0852,-2.0808,-2.0811,-2.0839,-2.0826,-2.0878,-2.0819,-2.0848,-2.085,-2.085,-2.0985,-2.1012,-2.1108,-2.0938,-2.094,-2.0942,0,-2.0849,-2.086,-2.0926,-2.0918,-2.0927,-2.0956,-2.0968,-2.0987,-2.0987,-2.0977,-2.0985,-2.0955,-2.0991,-2.0939,-2.0988,-2.0948,-2.0959,-2.0955,-2.0958,-2.0959,-2.0901,-2.099,-2.1137,-2.1152,-2.0962,-2.096,-2.0959,0,-2.0951,-2.0982,-2.1026,-2.1029,-2.1021,-2.1042,-2.104,-2.1037,-2.1048,-2.1059,-2.1066,-2.108,-2.1088,-2.1101,-2.1076,-2.1041,-2.1129,-2.1075,-2.1122,-2.1123,-2.1142,-2.1142,-2.1294,-2.115,-2.115,-2.1149,-2.1149,0,-2.1063,-2.1106,-2.1071,-2.1098,-2.1145,-2.1113,-2.1161,-2.1153,-2.1152,-2.1177,-2.1138,-2.1163,-2.1129,-2.1151,-2.1132,-2.1176,-2.118,-2.1173,-2.1167,-2.1176,-2.1177,-2.1183,-2.1175,-2.1153,-2.1152,-2.1151,-2.1151,0,-2.1184,-2.1163,-2.1208,-2.1197,-2.1195,-2.123,-2.122,-2.1245,-2.1232,-2.1264,-2.127,-2.1249,-2.1273,-2.125,-2.1272,-2.1259,-2.1318,-2.1303,-2.1318,-2.1314,-2.1363,-2.1359,-2.1523,-2.1544,-2.1387,-2.1389,-2.139,0,-2.1257,-2.1289,-2.1282,-2.1296,-2.1296,-2.1319,-2.133,-2.13,-2.1314,-2.1318,-2.1343,-2.1363,-2.1378,-2.1418,-2.1405,-2.1422,-2.1407,-2.1464,-2.1409,-2.1418,-2.1408,-2.1407,-2.141,-2.1475,-2.1476,-2.1478,-2.1479,0,-2.1389,-2.1377,-2.1395,-2.1409,-2.1424,-2.1434,-2.144,-2.1454,-2.1424,-2.1441,-2.1465,-2.1476,-2.15,-2.1521,-2.1534,-2.1532,-2.1501,-2.1497,-2.1509,-2.1518,-2.1525,-2.1522,-2.1349,-2.1493,-2.1491,-2.149,-2.149,-2.1489,-2.1488,-2.1515,-2.1514,-2.1535,-2.1537,-2.1545,-2.1568,-2.1558,-2.1577,-2.1594,-2.1575,-2.1605,-2.1606,-2.1621,-2.1623,-2.1646,-2.1622,-2.1639,-2.1643,-2.1648,-2.1655,-2.1522,-2.1648,-2.1647,-2.1647,-2.1647,-2.1646,0,-2.1618,-2.1616,-2.1636,-2.1647,-2.1664,-2.1634,-2.164,-2.1656,-2.1683,-2.1686,-2.1702,-2.173,-2.1751,-2.174,-2.1758,-2.1778,-2.1765,-2.1784,-2.1782,-2.1783,-2.1675,-2.1663,-2.1795,-2.1795,-2.1795,-2.1795,-2.1795,-2.1795,-2.1688,-2.1732,-2.172,-2.1765,-2.1762,-2.179,-2.1797,-2.1804,-2.1807,-2.184,-2.1857,-2.185,-2.1848,-2.1866,-2.1884,-2.188,-2.1888,-2.1913,-2.1905,-2.1805,-2.179,-2.1776,-2.1764,-2.1915,-2.1915,-2.201,-2.2011,-2.2011]},{"header":{"parameterUnit":"m.s-1","parameterCategory":1,"la1":30.2991,"la2":30.254,"lo1":-89.0895,"lo2":-89.0444,"dy":0.0017,"dx":0.0017,"nx":28,"ny":28,"refTime":"2025-02-09T09:00:00:Z","depth":0,"parameterNumber":3,"parameterNumberName":"V-component_of_WINDS"},"data":[0,0,0,0,0,0,0,0,0,0,0,0,0,0,0,0,0,0,0,0,0,0,0,0,0,0,0,0,0,0,0,0,0,0,0,0,0,0,0,0,0,0,0,0,0,0,0,0,0,0,0,0,0,0,0,0,0,0,0.9191,0.9191,0,0.9211,0.9211,0.9212,0.9265,0.9266,0.9268,0.9269,0.9288,0.9287,0.9287,0,0,0,0,0,0,0,0,0,0,0,0,0,0.9201,0.92,0.9191,0.9191,0.9192,0.9211,0.9211,0.9212,0.9265,0.9266,0.9268,0.9269,0.9288,0.9287,0.9287,0,0,0,0,0,0,0,0,0,0,0,0,0,0.9206,0.92,0.9191,0.9221,0.9224,0.9211,0.9211,0.9212,0.9265,0.9266,0.9268,0.927,0.9288,0.9287,0.9286,0.9246,0,0,0.9284,0.9284,0,0,0,0,0,0,0,0,0.9206,0.9206,0.9216,0.9219,0.9222,0.9238,0.9222,0.9223,0.9264,0.9249,0.9269,0.9271,0.927,0.927,0.927,0.9247,0.9248,0.9284,0.9283,0.9283,0.9283,0,0,0,0,0,0,0,0.9205,0.9205,0.9199,0.9216,0.922,0.9233,0.9236,0.9222,0.9249,0.9251,0.9254,0.9256,0.9271,0.9271,0.9271,0.9248,0.9284,0.9283,0.9283,0.9282,0.9197,0.9196,0,0,0,0,0,0,0.9201,0.9204,0.9198,0.92,0.9218,0.9232,0.9235,0.9231,0.925,0.9254,0.9255,0.9259,0.9272,0.9272,0.9272,0.9228,0.9283,0.9282,0.9282,0.9199,0.9197,0.9195,0,0,0,0,0,0,0.92,0.9199,0.9198,0.9203,0.9204,0.923,0.9225,0.923,0.923,0.9253,0.9258,0.9249,0.9273,0.9273,0.9253,0.923,0.9282,0.9281,0.9201,0.9198,0.9196,0.914,0,0,0,0,0,0,0.9201,0.9199,0.9184,0.9202,0.9203,0.9178,0.9223,0.9229,0.9228,0.9234,0.9249,0.9253,0.9274,0.9254,0.9252,0.923,0.928,0.9203,0.92,0.9197,0.9144,0.9135,0.9128,0,0,0,0,0,0.9201,0.9166,0.9183,0.9182,0.9185,0.9176,0.9177,0.9203,0.9226,0.9211,0.9227,0.9253,0.9233,0.9252,0.925,0.9227,0.9205,0.9201,0.9197,0.9147,0.9137,0.9128,0,0,0,0,0,0,0.9143,0.9169,0.9188,0.9158,0.9165,0.9186,0.9167,0.9191,0.919,0.9195,0.9227,0.923,0.9206,0.9214,0.9235,0.9191,0.9223,0.9219,0.9186,0.9176,0.9169,0.9167,0.928,0,0,0,0,0,0.9127,0.9118,0.9141,0.9113,0.9116,0.9141,0.9138,0.9158,0.9166,0.9169,0.9182,0.9189,0.9185,0.9181,0.9178,0.9145,0.9151,0.9129,0.9121,0.9115,0.911,0.9096,0.9087,0.9182,0.9182,0.9182,0,0,0.9093,0.9106,0.9098,0.9102,0.9109,0.91,0.9143,0.913,0.9124,0.9167,0.9149,0.916,0.917,0.9144,0.9133,0.915,0.9086,0.911,0.9104,0.9104,0.9091,0.9082,0.9074,0.9179,0.918,0.918,0,0,0.9027,0.9036,0.9014,0.9022,0.9033,0.9051,0.9046,0.9064,0.9073,0.9056,0.9089,0.9082,0.9073,0.9079,0.9081,0.9022,0.9046,0.902,0.898,0.8965,0.8958,0.8952,0.8932,0.8924,0.9016,0.9015,0.9015,0,0.8983,0.8971,0.9,0.8987,0.8988,0.9028,0.9007,0.9012,0.9022,0.9022,0.9041,0.9033,0.9042,0.902,0.9006,0.9005,0.9002,0.9018,0.8957,0.8951,0.8945,0.8927,0.8919,0.9012,0.9013,0.9013,0.9013,0,0.8918,0.8909,0.889,0.89,0.89,0.8882,0.891,0.8906,0.8926,0.8942,0.8926,0.8939,0.894,0.8936,0.8955,0.8917,0.8928,0.8951,0.8985,0.8932,0.8916,0.8909,0.9008,0.9009,0.901,0.9011,0,0,0.8814,0.8843,0.8836,0.8842,0.8859,0.8853,0.8838,0.8841,0.8838,0.8844,0.8833,0.8826,0.8849,0.8852,0.8872,0.8859,0.8814,0.8885,0.8886,0.8872,0.8775,0.8758,0.8749,0.883,0.8829,0.8828,0.8775,0,0.8753,0.8731,0.8758,0.873,0.8723,0.8762,0.875,0.8759,0.8774,0.8771,0.8788,0.8783,0.8813,0.8815,0.8804,0.8821,0.8795,0.8826,0.8822,0.8821,0.8819,0.874,0.8721,0.867,0.8768,0.8767,0.8766,0,0.8679,0.8683,0.8654,0.8676,0.8674,0.8663,0.8669,0.8665,0.8678,0.869,0.8694,0.8719,0.8708,0.8741,0.8726,0.8747,0.8747,0.8755,0.8754,0.8755,0.8791,0.874,0.8654,0.8647,0.8756,0.8757,0.8758,0,0.8608,0.8606,0.859,0.8594,0.8618,0.861,0.8619,0.8634,0.8635,0.864,0.8641,0.8645,0.8647,0.8649,0.8675,0.8696,0.8658,0.8693,0.8669,0.8668,0.8659,0.8659,0.8573,0.8658,0.8658,0.8658,0.8658,0,0.8537,0.8519,0.8559,0.8549,0.853,0.8562,0.8542,0.8556,0.8569,0.8563,0.8596,0.859,0.8624,0.8622,0.8642,0.8628,0.8628,0.8639,0.8644,0.8636,0.8635,0.8637,0.8641,0.8656,0.8656,0.8657,0.8657,0,0.8455,0.8481,0.8466,0.8491,0.8497,0.8482,0.8504,0.8496,0.8515,0.8506,0.8506,0.8535,0.8534,0.8561,0.8565,0.8579,0.8556,0.8568,0.8552,0.8556,0.8531,0.8534,0.8444,0.8434,0.8524,0.8523,0.8522,0,0.8408,0.8395,0.842,0.8419,0.8427,0.8424,0.8426,0.8458,0.8458,0.8473,0.8464,0.8466,0.847,0.8467,0.8488,0.8492,0.8505,0.8473,0.8506,0.8498,0.8506,0.8507,0.8506,0.8466,0.8465,0.8464,0.8463,0,0.8323,0.8338,0.8339,0.8346,0.8347,0.8354,0.8362,0.8359,0.8394,0.8393,0.8394,0.8396,0.8402,0.8404,0.8413,0.8424,0.845,0.8453,0.8448,0.844,0.8432,0.8437,0.8534,0.8455,0.8456,0.8456,0.8457,0.8457,0.8258,0.825,0.8266,0.8268,0.8278,0.8286,0.8281,0.8299,0.83,0.8308,0.8327,0.8324,0.834,0.8354,0.8363,0.8362,0.8378,0.837,0.8368,0.8366,0.8362,0.8432,0.8364,0.8364,0.8364,0.8364,0.8364,0,0.8177,0.819,0.8191,0.8203,0.8204,0.823,0.8242,0.8241,0.8239,0.8251,0.8255,0.8256,0.826,0.8282,0.8288,0.8283,0.8296,0.8284,0.8285,0.8287,0.8347,0.8351,0.8274,0.8274,0.8274,0.8274,0.8274,0.8274,0.8134,0.8122,0.8138,0.8132,0.8145,0.8144,0.8149,0.8157,0.8167,0.8168,0.8171,0.8186,0.8204,0.8212,0.8216,0.8223,0.8224,0.8208,0.8219,0.8274,0.8283,0.8291,0.8295,0.8208,0.8208,0.816,0.8159,0.8159]}]]